Time,TemperatureF,DewpointF,PressureIn,WindDirection,WindDirectionDegrees,WindSpeedMPH,WindSpeedGustMPH,Humidity,HourlyPrecipIn,Conditions,Clouds,dailyrainin,SoftwareType,DateUTC
2014-11-27 00:02:00,37.5,27.0,30.39,NW,323,0.0,-999.0,66,-99.99,,,0.00,weatherlink.com 1.10,2014-11-27 06:02:00,
2014-11-27 00:17:00,37.3,26.0,30.40,NNW,330,0.0,-999.0,65,-99.99,,,0.00,weatherlink.com 1.10,2014-11-27 06:17:00,
2014-11-27 00:32:00,37.6,26.0,30.40,WNW,299,0.0,-999.0,64,-99.99,,,0.00,weatherlink.com 1.10,2014-11-27 06:32:00,
2014-11-27 00:47:00,37.1,27.0,30.40,North,10,0.0,-999.0,66,-99.99,,,0.00,weatherlink.com 1.10,2014-11-27 06:47:00,
2014-11-27 01:02:00,36.1,26.0,30.41,NW,304,0.0,-999.0,68,-99.99,,,0.00,weatherlink.com 1.10,2014-11-27 07:02:00,
2014-11-27 01:17:00,35.5,27.0,30.41,NNW,342,0.0,-999.0,70,-99.99,,,0.00,weatherlink.com 1.10,2014-11-27 07:17:00,
2014-11-27 01:32:00,36.1,26.0,30.42,NNW,330,0.0,-999.0,67,-99.99,,,0.00,weatherlink.com 1.10,2014-11-27 07:32:00,
2014-11-27 01:47:00,36.5,26.0,30.42,NNW,331,0.0,-999.0,66,-99.99,,,0.00,weatherlink.com 1.10,2014-11-27 07:47:00,
2014-11-27 02:02:00,36.5,26.0,30.43,NNW,338,1.0,-999.0,66,-99.99,,,0.00,weatherlink.com 1.10,2014-11-27 08:02:00,
2014-11-27 02:17:00,36.1,26.0,30.44,NW,310,0.0,-999.0,67,-99.99,,,0.00,weatherlink.com 1.10,2014-11-27 08:17:00,
2014-11-27 02:32:00,35.2,26.0,30.45,WNW,300,0.0,-999.0,69,-99.99,,,0.00,weatherlink.com 1.10,2014-11-27 08:32:00,
2014-11-27 02:47:00,34.6,26.0,30.45,NW,317,0.0,-999.0,70,-99.99,,,0.00,weatherlink.com 1.10,2014-11-27 08:47:00,
2014-11-27 03:02:00,34.4,26.0,30.47,NW,311,0.0,-999.0,70,-99.99,,,0.00,weatherlink.com 1.10,2014-11-27 09:02:00,
2014-11-27 03:17:00,34.0,26.0,30.48,North,349,0.0,-999.0,71,-99.99,,,0.00,weatherlink.com 1.10,2014-11-27 09:17:00,
2014-11-27 03:32:00,33.2,25.0,30.48,NNW,346,0.0,-999.0,73,-99.99,,,0.00,weatherlink.com 1.10,2014-11-27 09:32:00,
2014-11-27 03:47:00,32.4,25.0,30.49,WNW,290,0.0,-999.0,74,-99.99,,,0.00,weatherlink.com 1.10,2014-11-27 09:47:00,
2014-11-27 04:02:00,32.0,25.0,30.49,NW,304,0.0,-999.0,76,-99.99,,,0.00,weatherlink.com 1.10,2014-11-27 10:02:00,
2014-11-27 04:17:00,32.2,25.0,30.49,NW,321,0.0,-999.0,75,-99.99,,,0.00,weatherlink.com 1.10,2014-11-27 10:17:00,
2014-11-27 04:32:00,32.2,25.0,30.49,NW,315,0.0,-999.0,74,-99.99,,,0.00,weatherlink.com 1.10,2014-11-27 10:32:00,
2014-11-27 04:47:00,31.6,25.0,30.49,NW,320,0.0,-999.0,76,-99.99,,,0.00,weatherlink.com 1.10,2014-11-27 10:47:00,
2014-11-27 05:02:00,31.3,25.0,30.49,NNW,333,0.0,-999.0,76,-99.99,,,0.00,weatherlink.com 1.10,2014-11-27 11:02:00,
2014-11-27 05:17:00,30.9,25.0,30.49,NNW,333,0.0,-999.0,77,-99.99,,,0.00,weatherlink.com 1.10,2014-11-27 11:17:00,
2014-11-27 05:32:00,30.3,24.0,30.49,NNW,332,0.0,-999.0,78,-99.99,,,0.00,weatherlink.com 1.10,2014-11-27 11:32:00,
2014-11-27 05:47:00,30.1,24.0,30.50,NNW,332,0.0,-999.0,78,-99.99,,,0.00,weatherlink.com 1.10,2014-11-27 11:47:00,
2014-11-27 06:02:00,29.9,24.0,30.50,NNW,332,0.0,-999.0,79,-99.99,,,0.00,weatherlink.com 1.10,2014-11-27 12:02:00,
2014-11-27 06:17:00,29.5,24.0,30.51,NNW,332,0.0,-999.0,79,-99.99,,,0.00,weatherlink.com 1.10,2014-11-27 12:17:00,
2014-11-27 06:32:00,29.0,24.0,30.51,NNW,332,0.0,-999.0,81,-99.99,,,0.00,weatherlink.com 1.10,2014-11-27 12:32:00,
2014-11-27 06:47:00,28.8,24.0,30.52,NNW,332,0.0,-999.0,82,-99.99,,,0.00,weatherlink.com 1.10,2014-11-27 12:47:00,
2014-11-27 07:02:00,28.4,24.0,30.52,NNW,332,0.0,-999.0,83,-99.99,,,0.00,weatherlink.com 1.10,2014-11-27 13:02:00,
2014-11-27 07:17:00,27.9,23.0,30.53,NNW,332,0.0,-999.0,83,-99.99,,,0.00,weatherlink.com 1.10,2014-11-27 13:17:00,
2014-11-27 07:32:00,27.6,23.0,30.54,NNW,332,0.0,-999.0,84,-99.99,,,0.00,weatherlink.com 1.10,2014-11-27 13:32:00,
2014-11-27 07:47:00,27.7,24.0,30.54,NNW,332,0.0,-999.0,85,-99.99,,,0.00,weatherlink.com 1.10,2014-11-27 13:47:00,
2014-11-27 08:02:00,28.3,24.0,30.54,NNW,332,0.0,-999.0,85,-99.99,,,0.00,weatherlink.com 1.10,2014-11-27 14:02:00,
2014-11-27 08:17:00,29.8,25.0,30.55,North,5,4.0,-999.0,82,-99.99,,,0.00,weatherlink.com 1.10,2014-11-27 14:17:00,
2014-11-27 08:32:00,31.2,25.0,30.55,NNW,345,0.0,-999.0,78,-99.99,,,0.00,weatherlink.com 1.10,2014-11-27 14:32:00,
2014-11-27 08:47:00,32.4,26.0,30.55,NNW,331,0.0,-999.0,77,-99.99,,,0.00,weatherlink.com 1.10,2014-11-27 14:47:00,
2014-11-27 09:02:00,33.8,27.0,30.56,North,11,0.0,-999.0,75,-99.99,,,0.00,weatherlink.com 1.10,2014-11-27 15:02:00,
2014-11-27 09:17:00,35.0,27.0,30.55,NE,48,2.0,-999.0,73,-99.99,,,0.00,weatherlink.com 1.10,2014-11-27 15:17:00,
2014-11-27 09:32:00,36.4,27.0,30.56,WNW,291,2.0,-999.0,70,-99.99,,,0.00,weatherlink.com 1.10,2014-11-27 15:32:00,
2014-11-27 09:47:00,37.3,28.0,30.55,ENE,66,0.0,-999.0,68,-99.99,,,0.00,weatherlink.com 1.10,2014-11-27 15:47:00,
2014-11-27 10:02:00,38.0,27.0,30.56,NE,41,2.0,-999.0,65,-99.99,,,0.00,weatherlink.com 1.10,2014-11-27 16:02:00,
2014-11-27 10:17:00,39.0,28.0,30.56,NE,39,0.0,-999.0,65,-99.99,,,0.00,weatherlink.com 1.10,2014-11-27 16:17:00,
2014-11-27 10:32:00,40.2,28.0,30.56,NNW,340,2.0,-999.0,63,-99.99,,,0.00,weatherlink.com 1.10,2014-11-27 16:32:00,
2014-11-27 10:47:00,40.7,28.0,30.55,NE,42,2.0,-999.0,61,-99.99,,,0.00,weatherlink.com 1.10,2014-11-27 16:47:00,
2014-11-27 11:02:00,41.4,28.0,30.55,North,350,0.0,-999.0,60,-99.99,,,0.00,weatherlink.com 1.10,2014-11-27 17:02:00,
2014-11-27 11:17:00,42.1,29.0,30.54,NE,36,0.0,-999.0,59,-99.99,,,0.00,weatherlink.com 1.10,2014-11-27 17:17:00,
2014-11-27 11:32:00,42.8,29.0,30.53,ESE,102,0.0,-999.0,58,-99.99,,,0.00,weatherlink.com 1.10,2014-11-27 17:32:00,
2014-11-27 11:47:00,44.1,29.0,30.52,SE,129,1.0,-999.0,56,-99.99,,,0.00,weatherlink.com 1.10,2014-11-27 17:47:00,
2014-11-27 12:02:00,45.1,28.0,30.51,SW,232,2.0,-999.0,52,-99.99,,,0.00,weatherlink.com 1.10,2014-11-27 18:02:00,
2014-11-27 12:17:00,45.4,28.0,30.50,ESE,103,0.0,-999.0,50,-99.99,,,0.00,weatherlink.com 1.10,2014-11-27 18:17:00,
2014-11-27 12:32:00,46.7,28.0,30.49,ESE,107,0.0,-999.0,49,-99.99,,,0.00,weatherlink.com 1.10,2014-11-27 18:32:00,
2014-11-27 12:47:00,47.6,29.0,30.49,South,184,0.0,-999.0,48,-99.99,,,0.00,weatherlink.com 1.10,2014-11-27 18:47:00,
2014-11-27 13:02:00,47.9,28.0,30.48,ESE,117,0.0,-999.0,47,-99.99,,,0.00,weatherlink.com 1.10,2014-11-27 19:02:00,
2014-11-27 13:17:00,48.1,28.0,30.47,WSW,240,0.0,-999.0,46,-99.99,,,0.00,weatherlink.com 1.10,2014-11-27 19:17:00,
2014-11-27 13:32:00,49.0,28.0,30.46,ESE,108,1.0,-999.0,45,-99.99,,,0.00,weatherlink.com 1.10,2014-11-27 19:32:00,
2014-11-27 13:47:00,49.6,28.0,30.45,SSE,150,0.0,-999.0,43,-99.99,,,0.00,weatherlink.com 1.10,2014-11-27 19:47:00,
2014-11-27 14:02:00,50.2,28.0,30.45,ESE,123,0.0,-999.0,42,-99.99,,,0.00,weatherlink.com 1.10,2014-11-27 20:02:00,
2014-11-27 14:17:00,50.1,27.0,30.44,South,173,0.0,-999.0,41,-99.99,,,0.00,weatherlink.com 1.10,2014-11-27 20:17:00,
2014-11-27 14:32:00,51.0,27.0,30.43,SSE,153,0.0,-999.0,40,-99.99,,,0.00,weatherlink.com 1.10,2014-11-27 20:32:00,
2014-11-27 14:47:00,51.3,26.0,30.42,SE,129,0.0,-999.0,38,-99.99,,,0.00,weatherlink.com 1.10,2014-11-27 20:47:00,
2014-11-27 15:02:00,51.6,26.0,30.42,NNE,12,0.0,-999.0,37,-99.99,,,0.00,weatherlink.com 1.10,2014-11-27 21:02:00,
2014-11-27 15:17:00,52.3,26.0,30.41,ESE,123,1.0,-999.0,36,-99.99,,,0.00,weatherlink.com 1.10,2014-11-27 21:17:00,
2014-11-27 15:32:00,52.6,25.0,30.41,SE,140,0.0,-999.0,35,-99.99,,,0.00,weatherlink.com 1.10,2014-11-27 21:32:00,
2014-11-27 15:47:00,52.7,24.0,30.40,SE,130,0.0,-999.0,33,-99.99,,,0.00,weatherlink.com 1.10,2014-11-27 21:47:00,
2014-11-27 16:02:00,52.7,26.0,30.40,SE,126,0.0,-999.0,35,-99.99,,,0.00,weatherlink.com 1.10,2014-11-27 22:02:00,
2014-11-27 16:17:00,52.7,26.0,30.40,NE,53,0.0,-999.0,36,-99.99,,,0.00,weatherlink.com 1.10,2014-11-27 22:17:00,
2014-11-27 16:31:00,51.7,27.0,30.39,ESE,109,0.0,-999.0,39,-99.99,,,0.00,weatherlink.com 1.10,2014-11-27 22:31:00,
2014-11-27 16:46:00,50.5,28.0,30.39,East,100,0.0,-999.0,42,-99.99,,,0.00,weatherlink.com 1.10,2014-11-27 22:46:00,
2014-11-27 17:01:00,48.5,28.0,30.39,East,100,0.0,-999.0,46,-99.99,,,0.00,weatherlink.com 1.10,2014-11-27 23:01:00,
2014-11-27 17:16:00,45.6,28.0,30.38,East,100,0.0,-999.0,50,-99.99,,,0.00,weatherlink.com 1.10,2014-11-27 23:16:00,
2014-11-27 17:31:00,43.3,27.0,30.38,East,100,0.0,-999.0,54,-99.99,,,0.00,weatherlink.com 1.10,2014-11-27 23:31:00,
2014-11-27 17:46:00,41.6,28.0,30.38,East,100,0.0,-999.0,58,-99.99,,,0.00,weatherlink.com 1.10,2014-11-27 23:46:00,
2014-11-27 18:01:00,40.3,27.0,30.38,East,100,0.0,-999.0,59,-99.99,,,0.00,weatherlink.com 1.10,2014-11-28 00:01:00,
2014-11-27 18:16:00,39.7,28.0,30.38,East,100,0.0,-999.0,63,-99.99,,,0.00,weatherlink.com 1.10,2014-11-28 00:16:00,
2014-11-27 18:31:00,39.6,28.0,30.38,East,100,0.0,-999.0,63,-99.99,,,0.00,weatherlink.com 1.10,2014-11-28 00:31:00,
2014-11-27 18:46:00,39.3,27.0,30.38,East,100,0.0,-999.0,61,-99.99,,,0.00,weatherlink.com 1.10,2014-11-28 00:46:00,
2014-11-27 19:01:00,39.0,26.0,30.37,East,100,0.0,-999.0,61,-99.99,,,0.00,weatherlink.com 1.10,2014-11-28 01:01:00,
2014-11-27 19:16:00,38.8,26.0,30.37,East,100,0.0,-999.0,60,-99.99,,,0.00,weatherlink.com 1.10,2014-11-28 01:16:00,
2014-11-27 19:31:00,38.8,27.0,30.38,East,100,0.0,-999.0,62,-99.99,,,0.00,weatherlink.com 1.10,2014-11-28 01:31:00,
2014-11-27 19:46:00,39.0,26.0,30.37,East,100,0.0,-999.0,59,-99.99,,,0.00,weatherlink.com 1.10,2014-11-28 01:46:00,
2014-11-27 20:01:00,39.1,25.0,30.37,East,100,0.0,-999.0,58,-99.99,,,0.00,weatherlink.com 1.10,2014-11-28 02:01:00,
2014-11-27 20:16:00,38.2,26.0,30.37,East,100,0.0,-999.0,63,-99.99,,,0.00,weatherlink.com 1.10,2014-11-28 02:16:00,
2014-11-27 20:31:00,37.5,25.0,30.37,East,100,0.0,-999.0,60,-99.99,,,0.00,weatherlink.com 1.10,2014-11-28 02:31:00,
2014-11-27 20:46:00,37.5,25.0,30.36,East,100,0.0,-999.0,61,-99.99,,,0.00,weatherlink.com 1.10,2014-11-28 02:46:00,
2014-11-27 21:01:00,38.0,25.0,30.36,SE,128,0.0,-999.0,60,-99.99,,,0.00,weatherlink.com 1.10,2014-11-28 03:01:00,
2014-11-27 21:16:00,38.1,25.0,30.37,SE,128,0.0,-999.0,60,-99.99,,,0.00,weatherlink.com 1.10,2014-11-28 03:16:00,
2014-11-27 21:31:00,38.2,26.0,30.36,SE,128,0.0,-999.0,61,-99.99,,,0.00,weatherlink.com 1.10,2014-11-28 03:31:00,